Location: Wien
(48.2082°N, 16.3738°E)
Time: 06:53:34
(UTC+02:00)

EO-79 - Pass Details

Date: 26 March 2019
Orbit: 593 x 609 km, 97.9° (Epoch: 20 April)

Event Time Altitude Azimuth Distance (km) Brightness Sun altitude
Rises 00:25:07 0° 14° (NNE) 2,877 ? -39.5°
Reaches altitude 10° 00:27:18 10° 15° (NNE) 1,970 ? -39.5°
Enters shadow 00:27:24 11° 16° (NNE) 1,930 ? -39.4°
